This is the latest recevied weather packets stored in our database for station/object KD5FHA. If no packets are shown the sender has not sent any weather packets the latest 10 day(s).
| Time | Temp. | Humidity | Pressure | Rain* | Wind** | Luminosity | Snow |
|---|---|---|---|---|---|---|---|
| 1777910495 | 22.22° C | 63% | 1013.4 hPa | 0 mm | - | 723 W/m² | - |
| 1777910192 | 22.22° C | 63% | 1013.5 hPa | 0 mm | - | 714 W/m² | - |
| 1777909889 | 22.22° C | 63% | 1013.5 hPa | 0 mm | - | 710 W/m² | - |
| 1777909586 | 22.78° C | 63% | 1013.6 hPa | 0 mm | - | 592 W/m² | - |
| 1777909283 | 22.22° C | 64% | 1013.5 hPa | 0 mm | - | 132 W/m² | - |
| 1777908981 | 21.67° C | 65% | 1013.7 hPa | 0 mm | - | 625 W/m² | - |
| 1777908679 | 21.67° C | 65% | 1013.9 hPa | 0 mm | - | 352 W/m² | - |
| 1777908376 | 21.67° C | 66% | 1013.9 hPa | 0 mm | - | 413 W/m² | - |
| 1777908072 | 21.11° C | 67% | 1013.8 hPa | 0 mm | - | 475 W/m² | - |
| 1777907768 | 21.11° C | 68% | 1013.7 hPa | 0 mm | - | 315 W/m² | - |
| 1777907462 | 21.11° C | 67% | 1013.7 hPa | 0 mm | - | 550 W/m² | - |
| 1777907160 | 20.56° C | 69% | 1013.8 hPa | 0 mm | - | 555 W/m² | - |
| 1777906857 | 20.56° C | 69% | 1014 hPa | 0 mm | - | 379 W/m² | - |
| 1777906555 | 20.56° C | 69% | 1013.9 hPa | 0 mm | - | 156 W/m² | - |
| 1777906249 | 20.56° C | 70% | 1014 hPa | 0 mm | - | 236 W/m² | - |
| 1777905946 | 20° C | 70% | 1014 hPa | 0 mm | - | 102 W/m² | - |
| 1777905643 | 20.56° C | 70% | 1014.2 hPa | 0 mm | - | 120 W/m² | - |
| 1777905340 | 20° C | 71% | 1014 hPa | 0 mm | - | 91 W/m² | - |
| 1777905038 | 19.44° C | 71% | 1014.1 hPa | 0 mm | - | 84 W/m² | - |
| 1777904735 | 19.44° C | 71% | 1014.1 hPa | 0 mm | - | 73 W/m² | - |
| 1777904432 | 19.44° C | 72% | 1014 hPa | 0 mm | - | 87 W/m² | - |
| 1777904129 | 19.44° C | 72% | 1014 hPa | 0 mm | - | 90 W/m² | - |
| 1777903826 | 18.89° C | 73% | 1014 hPa | 0 mm | - | 83 W/m² | - |
| 1777903522 | 18.89° C | 73% | 1014.2 hPa | 0 mm | - | 80 W/m² | - |
| 1777903219 | 18.89° C | 73% | 1014.2 hPa | 0 mm | - | 108 W/m² | - |
* Rain latest hour (hover to see other rain measurements)
** Current wind speed in m/s (hover to see current wind gust speed)